Regional Weather Roundup
Issued by NWS

Home | Current Version | Previous Version | Graphics & Text | Print | Product List | Glossary On
Versions: 1 2 3 4 5 6 7 8 9 10 11 12 13 14 15 16 17 18 19 20 21 22 23 24 25 26 27 28 29 30 31 32 33 34 35 36 37 38 39 40 41 42 43 44 45 46 47 48 49 50
000
ASUS45 KCYS 290010
RWRWY

WYOMING REGIONAL WEATHER ROUNDUP
NATIONAL WEATHER SERVICE CHEYENNE WY
600 PM MDT THU MAY 28 2015

NOTE:  "FAIR" INDICATES FEW OR NO CLOUDS BELOW 12,000 FEET
WITH NO SIGNIFICANT WEATHER AND/OR OBSTRUCTIONS TO VISIBILITY.

WYZ001-290100-
YELLOWSTONE NATIONAL PARK

CITY           SKY/WX    TMP DP  RH WIND       PRES   REMARKS
LK YELLOWSTONE   N/A     42  39  89 MISG      30.24F
6HR MIN TEMP:  35; 6HR MAX TEMP:  43; 6HR PCP:  0.11;

W YELLOWSTONE  NOT AVBL

$$
WYZ002>013-054>058-071-098>099-290100-
NORTHERN WYOMING

CITY           SKY/WX    TMP DP  RH WIND       PRES   REMARKS
JACKSON        CLOUDY    50  43  76 CALM      30.19R
CODY           FAIR      55  46  71 N18G30    30.12R
GREYBULL       FAIR      66  43  43 NW26G32   30.02R
6HR MIN TEMP:  60; 6HR MAX TEMP:  68; 6HR PCP: TRACE;

WORLAND        PTSUNNY   65  44  46 NW10      30.04R
6HR MIN TEMP:  59; 6HR MAX TEMP:  67; 6HR PCP: TRACE;

SHERIDAN       PTSUNNY   59  45  59 N16       30.07S
6HR MIN TEMP:  59; 6HR MAX TEMP:  64;

BUFFALO        PTSUNNY   58  46  64 N22       30.08R
6HR MIN TEMP:  55; 6HR MAX TEMP:  61;

GILLETTE       PTSUNNY   58  48  69 NW20      30.04R
6HR MIN TEMP:  57; 6HR MAX TEMP:  62; 6HR PCP: TRACE;

HULETT         CLOUDY    57  50  77 S3        30.03S
NEWCASTLE      LGT RAIN  55  50  82 W6        30.03R

$$
WYZ014>020-022>026-101>103-290100-
CENTRAL WYOMING

CITY           SKY/WX    TMP DP  RH WIND       PRES   REMARKS
BIG PINEY      FAIR      56  35  45 NW13      30.16S
6HR MIN TEMP:  40; 6HR MAX TEMP:  58; 6HR PCP:  0.08;

PINEDALE       RAIN      45  41  87 NW6       30.19R
DUBOIS         MOCLDY    52  34  50 NW13G22   30.14R
LANDER         PTSUNNY   53  44  71 SW7       30.07R
6HR MIN TEMP:  52; 6HR MAX TEMP:  66; 6HR PCP:  0.11;

RIVERTON       PTSUNNY   57  43  59 N13       30.08R
6HR MIN TEMP:  54; 6HR MAX TEMP:  65; 6HR PCP:  0.17;

CASPER         PTSUNNY   58  45  62 N13       30.06R
6HR MIN TEMP:  57; 6HR MAX TEMP:  69; 6HR PCP: TRACE;

DOUGLAS        PTSUNNY   64  45  49 N17G23    30.01R
6HR MIN TEMP:  63; 6HR MAX TEMP:  72;


$$
WYZ021-027>030-104>119-290100-
SOUTHERN WYOMING

CITY           SKY/WX    TMP DP  RH WIND       PRES   REMARKS
EVANSTON       FAIR      51  40  65 W10       30.22F
6HR MIN TEMP:  42; 6HR MAX TEMP:  59; 6HR PCP:  0.03;

KEMMERER       FAIR      50  36  57 W14       30.21F
FORT BRIDGER   CLEAR     48  43  81 W15G23    30.25S
ROCK SPRINGS   CLOUDY    48  40  73 SW20G28   30.19R
6HR MIN TEMP:  46; 6HR MAX TEMP:  58; 6HR PCP:  0.01;

DIXON          LGT RAIN  51  40  67 NW14      30.22R
RAWLINS        PTSUNNY   53  42  66 S10       30.15F
6HR MIN TEMP:  47; 6HR MAX TEMP:  63; 6HR PCP:  0.01;

SARATOGA       CLOUDY    50  37  62 W6        30.18S
LARAMIE        FAIR      56  33  42 W21       30.11R
6HR MIN TEMP:  53; 6HR MAX TEMP:  64; 6HR PCP: TRACE;

CHEYENNE       PTSUNNY   64  38  38 NW28G40   30.03R
6HR MIN TEMP:  61; 6HR MAX TEMP:  69;

TORRINGTON     FAIR      74  43  32 N8        29.91S
6HR MIN TEMP:  70; 6HR MAX TEMP:  75;

PINE BLUFFS    CLOUDY    66  46  48 NE5       29.97F

$$


USA.gov is the U.S. government's official web portal to all federal, state and local government web resources and services.